Regional Weather Roundup
Issued by NWS

Home | Current Version | Previous Version | Graphics & Text | Print | Product List | Glossary On
Versions: 1 2 3 4 5 6 7 8 9 10 11 12 13 14 15 16 17 18 19 20 21 22 23 24 25 26 27 28 29 30 31 32 33 34 35 36 37 38 39 40 41 42 43 44 45 46 47 48 49 50
000
ASUS43 KLSX 220259
RWRMO

WEATHER SUMMARY FOR MISSOURI
NATIONAL WEATHER SERVICE SPRINGFIELD MO
900 PM CST FRI NOV 21 2014

NOTE: "FAIR" INDICATES FEW OR NO CLOUDS BELOW 12,000 FEET WITH NO
       SIGNIFICANT WEATHER AND/OR OBSTRUCTIONS TO VISIBILITY.
       CURRENT SKY AND/OR WEATHER CONDITIONS ARE NOT AVAILABLE FOR
       CHILLICOTHE AND FARMINGTON.

MOZ001>031-035>038-043-044-053-054-220400-
...NORTHERN AND WESTERN MISSOURI...

CITY           SKY/WX    TMP DP  RH WIND       PRES   REMARKS
KANSAS CTY INT CLOUDY    44  40  85 SE10      30.05F
KANSAS C DTWN  CLOUDY    48  41  76 VRB5      30.06F
LEE`S SUMMIT   CLOUDY    47  41  80 S10G20    30.07F
ST JOSEPH      CLOUDY    39  34  82 SE6       30.07F
CHILLICOTHE      N/A     40  32  73 SE7       30.10F
KIRKSVILLE     CLOUDY    38  29  70 S15       30.13F WCI  29

$$
MOZ066>068-077>081-088>096-101>105-220400-
...SOUTHWEST MISSOURI...

CITY           SKY/WX    TMP DP  RH WIND       PRES   REMARKS
SPRINGFIELD    CLOUDY    44  41  89 SE17G26   30.14F
JOPLIN         CLOUDY    51  46  83 SE8       30.12S

$$
MOZ032>034-039>042-045>050-055>058-069>072-220400-
...CENTRAL MISSOURI...

CITY           SKY/WX    TMP DP  RH WIND       PRES   REMARKS
COLUMBIA       CLOUDY    45  34  65 S16       30.15F
JEFFERSON CITY CLOUDY    46  35  65 SE7       30.18S
ROLLA          CLOUDY    41  36  82 S14       30.18S
WARRENSBURG    CLOUDY    45  41  87 SE12      30.09F
OSAGE BEACH    CLOUDY    45  37  76 S9        30.18R

$$
MOZ051-052-059>065-220400-
...EAST CENTRAL MISSOURI...

CITY           SKY/WX    TMP DP  RH WIND       PRES   REMARKS
ST LOUIS INTL  NOT AVBL
SPIRIT OF STL  CLOUDY    40  33  76 SE5       30.23F
ST CHARLES     CLOUDY    41  26  55 SE12      30.24F

$$
MOZ072>076-082>087-097>100-106>115-220400-
...SOUTH CENTRAL AND SOUTHEAST MISSOURI...

CITY           SKY/WX    TMP DP  RH WIND       PRES   REMARKS
CAPE GIRARDEAU CLOUDY    43  36  76 E3        30.30F
FARMINGTON     CLOUDY    37  36  93 SE9       30.28S
POPLAR BLUFF   CLOUDY    41  37  86 NE5       30.28F
WEST PLAINS    FOG       38  37  97 VRB6      30.25R VSB 3/4

$$



USA.gov is the U.S. government's official web portal to all federal, state and local government web resources and services.